Weather History for Falfurrias, TX

Change the Weather History Date:

Wednesday, February 27, 2013

  Actual Average (KNQI) Record (KNQI)
Temperature  
Mean Temperature 63 °F -  
Max Temperature 80 °F 70 °F 60 °F (2014)
Min Temperature 46 °F 50 °F 35 °F (2014)
Degree Days  
Heating Degree Days 2    
Growing Degree Days 13 (Base 50)    
Moisture  
Dew Point 35 °F    
Average Humidity 44    
Maximum Humidity 79    
Minimum Humidity 12    
Precipitation  
Precipitation 0.00 in - - ()
Sea Level Pressure  
Sea Level Pressure 30.02 in    
Wind  
Wind Speed 5 mph (North)    
Max Wind Speed 17 mph    
Max Gust Speed 28 mph    
Visibility 10 miles    
Events      
Averages and records for this station are not official NWS values.
T = Trace of Precipitation, MM = Missing Value Source: NWS Daily Summary

Daily Weather History Graph

Daily Weather History Graph

Search for Another Location

Airport:

Trip Planner

Search our weather history database for the weather conditions in past years. The results will help you decide how hot, cold, wet, or windy it might be!

Date:

Astronomy

Feb. 27, 2013 Rise Set
Actual Time 6:58 AM CST 6:32 PM CST
Civil Twilight 6:34 AM CST 6:55 PM CST
Nautical Twilight 6:07 AM CST 7:22 PM CST
Astronomical Twilight 5:40 AM CST 7:49 PM CST
Moon 8:36 PM CST (2/27) 7:49 AM CST (2/27)
Length of Visible Light 12h 20m
Length of Day
11h 34m
Waning Gibbous, 96% of the Moon is Illuminated
Feb 27
Waning Gibbous
Mar 4
Last Quarter
Mar 11
New
Mar 19
First Quarter
Mar 27
Full

Hourly Weather History & Observations

Time (CST) Temp. Dew Point Humidity Pressure Visibility Wind Dir Wind Speed Gust Speed Precip Events Conditions
12:15 AM 53.6 °F 41.5 °F 64% 29.92 in 10.0 mi SSE 3.5 mph - N/A   Unknown
12:35 AM 54.0 °F 41.7 °F 63% 29.91 in 10.0 mi SE 3.5 mph - N/A   Unknown
12:55 AM 52.7 °F 41.4 °F 65% 29.91 in 10.0 mi SSE 3.5 mph - N/A   Unknown
1:15 AM 52.2 °F 41.5 °F 67% 29.91 in 10.0 mi Calm Calm - N/A   Unknown
1:35 AM 51.4 °F 41.4 °F 68% 29.91 in 10.0 mi SSE 4.6 mph - N/A   Unknown
1:55 AM 50.2 °F 41.0 °F 71% 29.91 in 10.0 mi Calm Calm - N/A   Unknown
2:15 AM 50.7 °F 41.2 °F 70% 29.91 in 10.0 mi Calm Calm - N/A   Unknown
2:35 AM 49.6 °F 40.3 °F 70% 29.91 in 10.0 mi Calm Calm - N/A   Unknown
2:55 AM 48.9 °F 40.3 °F 72% 29.90 in 10.0 mi Calm Calm - N/A   Unknown
3:15 AM 49.6 °F 40.8 °F 72% 29.89 in 10.0 mi Calm Calm - N/A   Unknown
3:35 AM 46.9 °F 39.2 °F 74% 29.89 in 10.0 mi Calm Calm - N/A   Unknown
3:55 AM 48.6 °F 40.8 °F 75% 29.88 in 10.0 mi SSE 3.5 mph - N/A   Unknown
4:15 AM 49.1 °F 41.0 °F 74% 29.88 in 10.0 mi Calm Calm - N/A   Unknown
4:35 AM 47.1 °F 39.9 °F 76% 29.88 in 10.0 mi Calm Calm - N/A   Unknown
4:55 AM 48.0 °F 41.0 °F 77% 29.88 in 10.0 mi Calm Calm - N/A   Unknown
5:35 AM 47.8 °F 41.0 °F 77% 29.90 in 10.0 mi Calm Calm - N/A   Unknown
5:55 AM 47.3 °F 41.0 °F 79% 29.91 in 10.0 mi NNW 3.5 mph - N/A   Unknown
6:15 AM 46.9 °F 40.8 °F 79% 29.91 in 10.0 mi Calm Calm - N/A   Unknown
6:35 AM 46.6 °F 40.3 °F 79% 29.92 in 10.0 mi Calm Calm - N/A   Unknown
6:55 AM 46.2 °F 39.9 °F 79% 29.93 in 10.0 mi Calm Calm - N/A   Unknown
7:35 AM 47.7 °F 41.2 °F 78% 29.96 in 10.0 mi Calm Calm - N/A   Unknown
7:55 AM 49.3 °F 41.9 °F 76% 29.96 in 10.0 mi Calm Calm - N/A   Unknown
8:15 AM 51.8 °F 43.0 °F 72% 29.98 in 10.0 mi North 3.5 mph - N/A   Unknown
8:35 AM 54.9 °F 44.8 °F 69% 29.99 in 10.0 mi Calm Calm - N/A   Unknown
8:55 AM 57.9 °F 46.2 °F 65% 30.01 in 10.0 mi North 3.5 mph - N/A   Unknown
9:15 AM 60.6 °F 47.1 °F 61% 30.05 in 10.0 mi NW 12.7 mph 17.3 mph N/A   Unknown
9:35 AM 63.1 °F 49.3 °F 61% 30.05 in 10.0 mi NNW 8.1 mph - N/A   Unknown
9:55 AM 66.0 °F 50.4 °F 57% 30.05 in 10.0 mi NW 4.6 mph - N/A   Unknown
10:15 AM 68.4 °F 50.9 °F 54% 30.06 in 10.0 mi NNW 6.9 mph - N/A   Unknown
10:35 AM 70.7 °F 49.1 °F 46% 30.06 in 10.0 mi NW 12.7 mph - N/A   Unknown
11:15 AM 71.6 °F 45.5 °F 39% 30.06 in 10.0 mi NW 13.8 mph 19.6 mph N/A   Unknown
11:35 AM 73.2 °F 43.5 °F 34% 30.06 in 10.0 mi North 11.5 mph 17.3 mph N/A   Unknown
11:55 AM 74.1 °F 40.3 °F 29% 30.06 in 10.0 mi North 12.7 mph 18.4 mph N/A   Unknown
12:15 PM 75.2 °F 37.2 °F 25% 30.06 in 10.0 mi North 11.5 mph 20.7 mph N/A   Unknown
12:35 PM 76.8 °F 34.5 °F 22% 30.05 in 10.0 mi North 17.3 mph 23.0 mph N/A   Unknown
12:55 PM 77.5 °F 32.7 °F 20% 30.05 in 10.0 mi North 13.8 mph 20.7 mph N/A   Unknown
1:15 PM 79.0 °F 29.7 °F 16% 30.04 in 10.0 mi North 13.8 mph 20.7 mph N/A   Unknown
1:35 PM 78.8 °F 26.4 °F 15% 30.04 in 10.0 mi NNW 16.1 mph 27.6 mph N/A   Unknown
1:55 PM 79.9 °F 26.2 °F 14% 30.04 in 10.0 mi NNW 13.8 mph 25.3 mph N/A   Unknown
2:15 PM 80.6 °F 24.1 °F 12% 30.03 in 10.0 mi North 17.3 mph 24.2 mph N/A   Unknown
2:35 PM 80.1 °F 24.1 °F 13% 30.03 in 10.0 mi NNW 16.1 mph 25.3 mph N/A   Unknown
3:15 PM 80.4 °F 23.5 °F 12% 30.03 in 10.0 mi North 6.9 mph 20.7 mph N/A   Unknown
3:35 PM 80.6 °F 23.4 °F 12% 30.02 in 10.0 mi North 16.1 mph 23.0 mph N/A   Unknown
3:55 PM 80.2 °F 22.1 °F 12% 30.02 in 10.0 mi North 15.0 mph 24.2 mph N/A   Unknown
4:15 PM 79.9 °F 23.7 °F 13% 30.03 in 10.0 mi North 11.5 mph 18.4 mph N/A   Unknown
4:35 PM 79.2 °F 23.9 °F 13% 30.03 in 10.0 mi North 10.4 mph 20.7 mph N/A   Unknown
5:15 PM 78.1 °F 24.8 °F 14% 30.04 in 10.0 mi North 13.8 mph 24.2 mph N/A   Unknown
5:35 PM 77.4 °F 25.3 °F 15% 30.05 in 10.0 mi North 12.7 mph 18.4 mph N/A   Unknown
5:55 PM 76.1 °F 26.1 °F 16% 30.06 in 10.0 mi NNE 10.4 mph 19.6 mph N/A   Unknown
6:15 PM 75.0 °F 26.2 °F 16% 30.06 in 10.0 mi North 13.8 mph 20.7 mph N/A   Unknown
6:35 PM 73.9 °F 26.4 °F 17% 30.07 in 10.0 mi North 11.5 mph - N/A   Unknown
7:35 PM 68.7 °F 26.6 °F 21% 30.11 in 10.0 mi North 8.1 mph - N/A   Unknown
7:55 PM 67.5 °F 27.1 °F 22% 30.12 in 10.0 mi North 6.9 mph - N/A   Unknown
8:15 PM 66.0 °F 27.9 °F 24% 30.13 in 10.0 mi North 6.9 mph - N/A   Unknown
8:35 PM 65.7 °F 28.4 °F 25% 30.14 in 10.0 mi NNE 8.1 mph - N/A   Unknown
9:15 PM 63.5 °F 29.3 °F 28% 30.16 in 10.0 mi NNE 6.9 mph - N/A   Unknown
9:35 PM 62.1 °F 29.3 °F 29% 30.16 in 10.0 mi North 5.8 mph - N/A   Unknown
9:55 PM 61.2 °F 29.3 °F 30% 30.17 in 10.0 mi NNE 6.9 mph - N/A   Unknown
10:15 PM 61.5 °F 29.3 °F 30% 30.18 in 10.0 mi NNE 6.9 mph - N/A   Unknown
10:35 PM 59.7 °F 29.3 °F 32% 30.18 in 10.0 mi NNE 5.8 mph - N/A   Unknown
11:15 PM 59.5 °F 28.6 °F 31% 30.19 in 10.0 mi NNE 6.9 mph - N/A   Unknown
11:35 PM 59.9 °F 28.8 °F 31% 30.18 in 10.0 mi NNE 9.2 mph - N/A   Unknown
11:55 PM 60.8 °F 28.4 °F 29% 30.18 in 10.0 mi NNE 9.2 mph - N/A   Unknown